Find Starlink 30851

NORAD ID: 58215 Int'l Des: 2023-170 Owner: SPXS Country: US Constellation: starlink operational
LEOCIRCULAR

現在のビュー

3D地球を読み込み中...

About Starlink 30851

Starlink 30851 (NORAD 58215) is a starlink constellation satellite (v2 mini) launched Nov 4, 2023 by SPXS of US. It operates in LEO, CIRCULAR orbit with a mass of 730.00 kg.

Starlink 30851について

説明を読み込み中...

次回通過

Passes for default location (London). Set your location on the main map for personalized predictions.

高度履歴

Loading altitude history...

軌道要素

1 58215U 23170K 26167.82522381 -.00014964 00000-0 -53436-3 0 9997
2 58215 43.0007 354.1275 0001788 270.1153 89.9493 15.27639583145468
Epoch: Jun 16, 2026 • Age: 40 hours

現在のステータス

高度 487.2 km
速度 7.62 km/s
衛星直下点 -20.34°S, 101.93°E
打ち上げ日 Nov 4, 2023
運用期間 2.6 years
タイプ internet

技術仕様

分類 Payload
質量 730.00 kg
乾燥質量 700.00 kg
総質量 730.00 kg
長さ 0.30 m
直径 4.10 m
スパン 29.00 m
形状 Box + pan
製造者 SPXS
バスタイプ Starlink V2M
フェーズステータス In Orbit
所有者/国 SPXS/US

Most Searched